This is the latest recevied weather packets stored in our database for station/object K7FLA. If no packets are shown the sender has not sent any weather packets the latest 1 day(s).
| Time | Temp. | Humidity | Pressure | Rain* | Wind** | Luminosity | Snow |
|---|---|---|---|---|---|---|---|
| 1778005261 | 16.11° C | 61% | 1095 hPa | 0 mm | 1.79 m/s, 272° | 500 W/m² | - |
| 1778004958 | 16.11° C | 61% | 1095 hPa | 0 mm | 1.79 m/s, 258° | 497 W/m² | - |
| 1778004655 | 16.11° C | 59% | 1094.9 hPa | 0 mm | 1.79 m/s, 148° | 325 W/m² | - |
| 1778004351 | 16.67° C | 58% | 1094.9 hPa | 0 mm | 1.34 m/s, 310° | 298 W/m² | - |
| 1778004049 | 16.67° C | 58% | 1094.9 hPa | 0 mm | 2.24 m/s, 196° | 372 W/m² | - |
| 1778003749 | 16.67° C | 61% | 1094.8 hPa | 0 mm | 0.89 m/s, 261° | 470 W/m² | - |
| 1778003447 | 16.67° C | 61% | 1094.8 hPa | 0 mm | 2.68 m/s, 286° | 487 W/m² | - |
| 1778003143 | 16.67° C | 61% | 1094.7 hPa | 0 mm | 0.89 m/s, 237° | 396 W/m² | - |
| 1778002840 | 16.67° C | 61% | 1094.7 hPa | 0 mm | 0.89 m/s, 220° | 410 W/m² | - |
| 1778002536 | 16.67° C | 62% | 1094.8 hPa | 0 mm | 1.34 m/s, 248° | 432 W/m² | - |
| 1778002233 | 16.67° C | 67% | 1094.7 hPa | 0 mm | 0.89 m/s, 284° | 434 W/m² | - |
| 1778001931 | 15.56° C | 73% | 1094.7 hPa | 0 mm | 1.34 m/s, 246° | 1054 W/m² | - |
| 1778001627 | 15° C | 70% | 1094.8 hPa | 0 mm | 0.89 m/s, 264° | 681 W/m² | - |
| 1778001322 | 14.44° C | 70% | 1094.5 hPa | 0 mm | 1.34 m/s, 273° | 431 W/m² | - |
| 1778001019 | 13.89° C | 74% | 1094.6 hPa | 0 mm | 1.79 m/s, 233° | 384 W/m² | - |
| 1778000716 | 13.89° C | 73% | 1094.6 hPa | 0 mm | 1.79 m/s, 229° | 335 W/m² | - |
| 1778000413 | 13.89° C | 71% | 1094.5 hPa | 0 mm | 1.79 m/s, 215° | 230 W/m² | - |
| 1778000108 | 13.89° C | 75% | 1094.7 hPa | 0 mm | 3.13 m/s, 263° | 217 W/m² | - |
| 1777999804 | 13.89° C | 75% | 1094.3 hPa | 0 mm | 1.34 m/s, 255° | 305 W/m² | - |
| 1777999500 | 13.89° C | 75% | 1094.2 hPa | 0 mm | 1.34 m/s, 180° | 268 W/m² | - |
| 1777999198 | 13.89° C | 73% | 1094.3 hPa | 0 mm | 1.79 m/s, 228° | 258 W/m² | - |
| 1777998896 | 14.44° C | 74% | 1094.2 hPa | 0 mm | 2.68 m/s, 281° | 242 W/m² | - |
| 1777998596 | 14.44° C | 73% | 1094 hPa | 0 mm | 2.24 m/s, 253° | 240 W/m² | - |
| 1777998291 | 15° C | 72% | 1094 hPa | 0 mm | 2.68 m/s, 279° | 270 W/m² | - |
| 1777997988 | 14.44° C | 75% | 1093.9 hPa | 0 mm | 1.79 m/s, 222° | 278 W/m² | - |
* Rain latest hour (hover to see other rain measurements)
** Current wind speed in m/s (hover to see current wind gust speed)